Regional Weather Roundup
Issued by NWS

Home | Current Version | Previous Version | Graphics & Text | Print | Product List | Glossary On
Versions: 1 2 3 4 5 6 7 8 9 10 11 12 13 14 15 16 17 18 19 20 21 22 23 24 25 26 27 28 29 30 31 32 33 34 35 36 37 38 39 40 41 42 43 44 45 46 47 48 49 50
051
ASUS45 KTFX 280110
RWRMT
MONTANA REGIONAL WEATHER ROUNDUP
NATIONAL WEATHER SERVICE GREAT FALLS MT
700 PM MDT TUE JUN 27 2017

NOTE: "FAIR" INDICATES FEW OR NO CLOUDS BELOW 12000 FEET WITH NO
SIGNIFICANT WEATHER AND/OR OBSTRUCTIONS TO VISIBILITY.

MTZ001>007-043-280200-
WEST OF THE DIVIDE

CITY           SKY/WX    TMP DP  RH WIND       PRES   REMARKS
KALISPELL      MOSUNNY   77  32  19 W8        29.77F
MISSOULA       SUNNY     82  38  20 W10       29.79S
BUTTE          PTSUNNY   61  43  51 SW15G26   29.97R
MULLAN PASS    MOSUNNY   62  39  42 MISG      29.98F
ANACONDA         N/A     66  45  45 S25G32    29.91R
DEER LODGE       N/A     73  39  29 W10       29.89S
EUREKA           N/A     79  39  24 CALM      29.75S
HAMILTON         N/A     79  41  25 W12       29.83F
$$

MTZ008-052>055-280200-
SOUTHWEST MONTANA

CITY           SKY/WX    TMP DP  RH WIND       PRES   REMARKS
BOZEMAN        PTSUNNY   63  55  75 E5        29.89F
DILLON         CLOUDY    60  44  55 NW24G35   29.94S
W YELLOWSTONE  CLOUDY    55  48  76 S14G21    30.05F
ENNIS          PTSUNNY   66  43  42 NE10      29.99S
THREE FORKS      N/A     66  56  70 CALM      29.88F
$$

MTZ009-010-012-014-046-048-049-054-280200-
EAST SLOPES AND CENTRAL MONTANA

CITY           SKY/WX    TMP DP  RH WIND       PRES   REMARKS
CUT BANK       MOSUNNY   73  38  27 W13       29.75F
GREAT FALLS    SUNNY     75  46  35 E13       29.77S
MALMSTROM AFB  MOSUNNY   75  48  37 SE8       29.76F
HELENA         SUNNY     81  38  21 W16G24    29.79S
CHOTEAU          N/A     77  34  20 W9G16     29.79S
$$

MTZ011-013-016-021-045-047-050-051-280200-
NORTH CENTRAL MONTANA

CITY           SKY/WX    TMP DP  RH WIND       PRES   REMARKS
HAVRE          MOSUNNY   80  40  23 NW10      29.72S
LEWISTOWN      PTSUNNY   71  50  47 W10       29.82S
N BAR RANCH      N/A     68  50  52 W9        29.86R
CHINOOK          N/A     79  45  29 NW9       29.70S
FORT BENTON      N/A     79  36  21 CALM        N/A
$$

MTZ017>020-022>027-061-062-280200-
NORTHEAST MONTANA

CITY           SKY/WX    TMP DP  RH WIND       PRES   REMARKS
GLASGOW        PTSUNNY   77  47  34 N21       29.68R
JORDAN           N/A     69  58  67 N6        29.70F
SIDNEY         CLOUDY    80  52  37 N14       29.59R
WOLF POINT     PTSUNNY   80  55  42 N20       29.62R
MALTA          MOSUNNY   79  48  34 N15       29.69R
PLENTYWOOD       N/A     72  57  60 NW16      29.63R
POPLAR           N/A     77  57  50 NW17G23   29.62R
$$

MTZ028>42-056>058-280200-
SOUTHCENTRAL AND SOUTHEAST MONTANA

CITY           SKY/WX    TMP DP  RH WIND       PRES   REMARKS
BAKER          CLOUDY    77  49  37 NW21G30   29.66R
BILLINGS       CLOUDY    77  47  34 NW9       29.80F
LIVINGSTON     LGT RAIN  62  48  60 SW28G35   29.87S
MILES CITY     PTSUNNY   68  54  60 NW22G29   29.70S
BIG TIMBER     PTSUNNY   70  43  37 W29G40    29.88R
ROUNDUP          N/A     75  42  30 NW10      29.73R
$$

REGIONAL REPORTS...DAKOTAS

CITY           SKY/WX    TMP DP  RH WIND       PRES   REMARKS
WILLISTON      CLOUDY    78  54  43 N17       29.59R
MINOT          CLOUDY    82  58  43 SE5       29.50F
DICKINSON      CLOUDY    80  44  27 NW9       29.54R
BEACH            N/A     79  50  36 N13       29.65R
CROSBY           N/A     72  55  56 N14       29.60R
TIOGA          PTSUNNY   75  55  50 N15G22    29.60R
WATFORD CITY     N/A     75  55  50 N13G23    29.57R
BISMARCK       PTSUNNY   82  59  45 SE12      29.46F
GRAND FORKS    PTSUNNY   76  49  38 SE20      29.63F
FARGO          PTSUNNY   73  49  42 SE17      29.67S
BUFFALO SD       N/A     84  46  26 NW20      29.54F
RAPID CITY     CLOUDY    79  45  29 VRB6G31   29.63F
$$

REGIONAL REPORTS...WYOMING/IDAHO/WASHINGTON

CITY           SKY/WX    TMP DP  RH WIND       PRES   REMARKS
GILLETTE       CLOUDY    64  55  72 NW9       29.77F
SHERIDAN       CLOUDY    73  53  49 N8        29.81R
BUFFALO WY     PTSUNNY   60  50  69 W9        29.85F
CODY           CLOUDY    70  42  36 W14G22    29.91F
YELLOWSTONE LA   N/A     47  45  93 W10G20    30.17R
IDAHO FALLS    MOSUNNY   79  45  29 S20G26    29.86F
SALMON         CLOUDY    66  50  55 SW3       29.94F
BOISE          SUNNY     88  42  20 NW10      29.79F
SPOKANE        MOSUNNY   81  29  15 W9        29.82F
$$

REGIONAL REPORTS...ALBERTA

CITY           SKY/WX    TMP DP  RH WIND       PRES   REMARKS
EDMONTON       MOSUNNY   57  50  77 W14G21    29.70F
CALGARY        MOSUNNY   68  45  42 E13G21    29.73S
LETHBRIDGE     MOSUNNY   81  41  24 VRB7G20   29.67F
MEDICINE HAT   MOSUNNY   77  43  29 W3        29.69F
CARDSTON         N/A     75  34  22 W13G21      N/A
MILK RIVER       N/A     73  52  46 E9          N/A
$$

REGIONAL REPORTS...SASKATCHEWAN

CITY           SKY/WX    TMP DP  RH WIND       PRES   REMARKS
SWIFT CURRENT  SUNNY     70  43  37 NW15G24   29.69S
REGINA         MOSUNNY   70  59  68 NW22G30   29.59R
SASKATOON      MOSUNNY   72  41  33 W21G31    29.60R
CYPRESS HILLS    N/A     66  36  32 NW7         N/A
VAL MARIE        N/A     73  43  33 N20         N/A
ROCKGLEN         N/A     70  48  46 N18G29      N/A
ASSINIBOIA       N/A     61  50  67 NW13        N/A
$$




USA.gov is the U.S. government's official web portal to all federal, state and local government web resources and services.